�N����,�����b,���ԉ��x,���Ԏ��x,��󒲎�,����,�����W
2004/9/1,0:00:00,27.0 ,71.6 ,,,
2004/9/1,0:15:00,27.0 ,71.8 ,,,
2004/9/1,0:30:00,27.0 ,72.1 ,,,
2004/9/1,0:45:00,27.0 ,72.0 ,,,
2004/9/1,1:00:00,27.0 ,71.9 ,,,
2004/9/1,1:15:00,27.0 ,72.1 ,,,
2004/9/1,1:30:00,27.0 ,72.5 ,,,
2004/9/1,1:45:00,26.9 ,72.7 ,,,
2004/9/1,2:00:00,26.9 ,72.8 ,,,
2004/9/1,2:15:00,26.8 ,73.1 ,,,
2004/9/1,2:30:00,26.7 ,73.4 ,,,
2004/9/1,2:45:00,26.7 ,73.5 ,,,
2004/9/1,3:00:00,26.8 ,72.9 ,,,
2004/9/1,3:15:00,26.8 ,73.0 ,,,
2004/9/1,3:30:00,26.6 ,73.3 ,,,
2004/9/1,3:45:00,26.6 ,73.6 
2004/9/1,4:00:00,26.5 ,73.5 
2004/9/1,4:15:00,26.4 ,73.5 
2004/9/1,4:30:00,26.3 ,73.7 
2004/9/1,4:45:00,26.4 ,73.2 
2004/9/1,5:00:00,26.3 ,73.4 
2004/9/1,5:15:00,26.3 ,73.1 
2004/9/1,5:30:00,26.3 ,73.5 
2004/9/1,5:45:00,26.3 ,73.5 
2004/9/1,6:00:00,26.3 ,73.6 
2004/9/1,6:15:00,26.4 ,73.4 
2004/9/1,6:30:00,26.4 ,73.1 
2004/9/1,6:45:00,26.3 ,73.2 
2004/9/1,7:00:00,26.4 ,72.4 
2004/9/1,7:15:00,26.6 ,71.9 
2004/9/1,7:30:00,26.8 ,71.5 
2004/9/1,7:45:00,25.3 ,76.8 
2004/9/1,8:00:00,25.9 ,75.4 
2004/9/1,8:15:00,26.0 ,74.7 
2004/9/1,8:30:00,26.4 ,73.7 
2004/9/1,8:45:00,26.1 ,73.9 
2004/9/1,9:00:00,26.7 ,70.8 
2004/9/1,9:15:00,27.1 ,66.8 
2004/9/1,9:30:00,27.2 ,68.4 
2004/9/1,9:45:00,27.6 ,66.7 
2004/9/1,10:00:00,28.0 ,65.4 
2004/9/1,10:15:00,28.1 ,64.5 
2004/9/1,10:30:00,28.1 ,64.1 
2004/9/1,10:45:00,28.1 ,63.7 
2004/9/1,11:00:00,28.1 ,63.0 
2004/9/1,11:15:00,28.5 ,63.2 
2004/9/1,11:30:00,28.3 ,63.1 
2004/9/1,11:45:00,28.2 ,64.1 
2004/9/1,12:00:00,28.2 ,65.2 
2004/9/1,12:15:00,28.0 ,66.9 
2004/9/1,12:30:00,27.8 ,67.1 
2004/9/1,12:45:00,28.0 ,63.2 
2004/9/1,13:00:00,27.9 ,62.5 
2004/9/1,13:15:00,28.0 ,56.9 
2004/9/1,13:30:00,28.3 ,59.4 
2004/9/1,13:45:00,28.3 ,58.1 
2004/9/1,14:00:00,28.1 ,53.7 
2004/9/1,14:15:00,28.1 ,55.7 
2004/9/1,14:30:00,28.1 ,54.2 
2004/9/1,14:45:00,28.0 ,58.3 
2004/9/1,15:00:00,27.7 ,60.1 
2004/9/1,15:15:00,27.6 ,60.2 
2004/9/1,15:30:00,27.5 ,56.4 
2004/9/1,15:45:00,27.7 ,57.3 
2004/9/1,16:00:00,27.3 ,59.8 
2004/9/1,16:15:00,27.2 ,62.3 
2004/9/1,16:30:00,27.0 ,66.7 
2004/9/1,16:45:00,26.7 ,67.4 
2004/9/1,17:00:00,26.3 ,72.0 
2004/9/1,17:15:00,26.2 ,72.5 
2004/9/1,17:30:00,26.2 ,75.3 
2004/9/1,17:45:00,26.0 ,78.6 
2004/9/1,18:00:00,25.4 ,81.1 
2004/9/1,18:15:00,25.3 ,77.7 
2004/9/1,18:30:00,25.5 ,75.4 
2004/9/1,18:45:00,25.3 ,74.3 
2004/9/1,19:00:00,25.3 ,71.9 
2004/9/1,19:15:00,25.4 ,73.5 
2004/9/1,19:30:00,24.7 ,79.1 
2004/9/1,19:45:00,24.6 ,77.9 
2004/9/1,20:00:00,25.3 ,71.1 
2004/9/1,20:15:00,25.4 ,67.1 
2004/9/1,20:30:00,25.7 ,68.2 
2004/9/1,20:45:00,25.4 ,70.4 
2004/9/1,21:00:00,25.3 ,71.0 
2004/9/1,21:15:00,25.5 ,70.9 
2004/9/1,21:30:00,25.1 ,75.8 
2004/9/1,21:45:00,25.2 ,74.9 
2004/9/1,22:00:00,24.8 ,75.5 
2004/9/1,22:15:00,25.6 ,70.5 
2004/9/1,22:30:00,25.5 ,71.7 
2004/9/1,22:45:00,25.8 ,71.2 
2004/9/1,23:00:00,25.8 ,71.2 
2004/9/1,23:15:00,25.8 ,70.4 
2004/9/1,23:30:00,25.8 ,70.3 
2004/9/1,23:45:00,26.1 ,69.5 
2004/9/2,0:00:00,26.3 ,69.5 
2004/9/2,0:15:00,26.4 ,69.8 
2004/9/2,0:30:00,26.5 ,70.0 
2004/9/2,0:45:00,26.5 ,69.9 
2004/9/2,1:00:00,26.5 ,69.8 
2004/9/2,1:15:00,26.5 ,69.7 
2004/9/2,1:30:00,26.4 ,69.6 
2004/9/2,1:45:00,26.4 ,69.6 
2004/9/2,2:00:00,26.4 ,69.7 
2004/9/2,2:15:00,26.4 ,69.6 
2004/9/2,2:30:00,26.3 ,69.7 
2004/9/2,2:45:00,26.3 ,69.7 
2004/9/2,3:00:00,26.3 ,69.8 
2004/9/2,3:15:00,26.3 ,69.8 
2004/9/2,3:30:00,26.3 ,69.9 
2004/9/2,3:45:00,26.3 ,69.8 
2004/9/2,4:00:00,26.3 ,69.8 
2004/9/2,4:15:00,26.3 ,69.8 
2004/9/2,4:30:00,26.3 ,69.8 
2004/9/2,4:45:00,26.3 ,69.7 
2004/9/2,5:00:00,26.2 ,69.7 
2004/9/2,5:15:00,26.2 ,69.7 
2004/9/2,5:30:00,26.3 ,69.5 
2004/9/2,5:45:00,25.4 ,72.9 
2004/9/2,6:00:00,25.6 ,71.8 
2004/9/2,6:15:00,24.5 ,74.8 
2004/9/2,6:30:00,24.5 ,74.4 
2004/9/2,6:45:00,24.4 ,75.1 
2004/9/2,7:00:00,24.6 ,74.4 
2004/9/2,7:15:00,25.1 ,71.9 
2004/9/2,7:30:00,24.7 ,73.9 
2004/9/2,7:45:00,25.5 ,72.3 
2004/9/2,8:00:00,25.7 ,71.1 
2004/9/2,8:15:00,25.8 ,71.0 
2004/9/2,8:30:00,25.9 ,70.6 
2004/9/2,8:45:00,25.9 ,69.8 
2004/9/2,9:00:00,26.0 ,69.9 
2004/9/2,9:15:00,26.0 ,69.9 
2004/9/2,9:30:00,26.0 ,69.8 
2004/9/2,9:45:00,26.0 ,70.3 
2004/9/2,10:00:00,26.0 ,70.3 
2004/9/2,10:15:00,26.0 ,71.0 
2004/9/2,10:30:00,25.9 ,70.9 
2004/9/2,10:45:00,25.9 ,70.9 
2004/9/2,11:00:00,26.0 ,70.7 
2004/9/2,11:15:00,26.0 ,70.7 
2004/9/2,11:30:00,26.0 ,70.5 
2004/9/2,11:45:00,26.0 ,70.3 
2004/9/2,12:00:00,25.9 ,70.4 
2004/9/2,12:15:00,24.6 ,74.5 
2004/9/2,12:30:00,24.3 ,75.4 
2004/9/2,12:45:00,24.2 ,75.9 
2004/9/2,13:00:00,24.3 ,74.5 
2004/9/2,13:15:00,25.1 ,72.0 
2004/9/2,13:30:00,25.6 ,70.3 
2004/9/2,13:45:00,25.7 ,70.1 
2004/9/2,14:00:00,25.8 ,69.9 
2004/9/2,14:15:00,25.8 ,69.8 
2004/9/2,14:30:00,25.8 ,70.0 
2004/9/2,14:45:00,25.8 ,69.8 
2004/9/2,15:00:00,25.8 ,69.7 
2004/9/2,15:15:00,25.8 ,69.8 
2004/9/2,15:30:00,25.8 ,69.8 
2004/9/2,15:45:00,25.8 ,70.0 
2004/9/2,16:00:00,25.8 ,69.9 
2004/9/2,16:15:00,25.8 ,70.0 
2004/9/2,16:30:00,25.8 ,69.9 
2004/9/2,16:45:00,25.8 ,69.9 
2004/9/2,17:00:00,25.8 ,69.9 
2004/9/2,17:15:00,25.8 ,69.9 
2004/9/2,17:30:00,25.7 ,70.2 
2004/9/2,17:45:00,25.8 ,70.0 
2004/9/2,18:00:00,25.8 ,70.1 
2004/9/2,18:15:00,25.7 ,70.1 
2004/9/2,18:30:00,25.7 ,70.1 
2004/9/2,18:45:00,25.6 ,70.2 
2004/9/2,19:00:00,25.6 ,70.2 
2004/9/2,19:15:00,25.6 ,70.2 
2004/9/2,19:30:00,25.6 ,70.2 
2004/9/2,19:45:00,25.5 ,70.2 
2004/9/2,20:00:00,25.5 ,70.2 
2004/9/2,20:15:00,25.5 ,70.2 
2004/9/2,20:30:00,25.4 ,71.0 
2004/9/2,20:45:00,25.3 ,71.3 
2004/9/2,21:00:00,25.4 ,71.1 
2004/9/2,21:15:00,25.4 ,71.0 
2004/9/2,21:30:00,25.4 ,71.0 
2004/9/2,21:45:00,25.4 ,71.1 
2004/9/2,22:00:00,25.5 ,70.5 
2004/9/2,22:15:00,25.5 ,70.5 
2004/9/2,22:30:00,25.5 ,70.8 
2004/9/2,22:45:00,25.5 ,70.9 
2004/9/2,23:00:00,25.6 ,70.5 
2004/9/2,23:15:00,25.5 ,71.0 
2004/9/2,23:30:00,25.5 ,71.4 
2004/9/2,23:45:00,25.4 ,71.4 
2004/9/3,0:00:00,25.4 ,71.5 
2004/9/3,0:15:00,25.4 ,71.9 
2004/9/3,0:30:00,25.4 ,72.2 
2004/9/3,0:45:00,25.4 ,72.0 
2004/9/3,1:00:00,25.3 ,71.9 
2004/9/3,1:15:00,25.3 ,71.8 
2004/9/3,1:30:00,25.3 ,71.6 
2004/9/3,1:45:00,25.3 ,71.6 
2004/9/3,2:00:00,25.2 ,71.6 
2004/9/3,2:15:00,25.2 ,71.6 
2004/9/3,2:30:00,25.1 ,71.5 
2004/9/3,2:45:00,25.1 ,71.5 
2004/9/3,3:00:00,25.1 ,71.5 
2004/9/3,3:15:00,25.0 ,71.5 
2004/9/3,3:30:00,25.0 ,71.5 
2004/9/3,3:45:00,25.0 ,71.4 
2004/9/3,4:00:00,25.0 ,71.4 
2004/9/3,4:15:00,24.9 ,71.4 
2004/9/3,4:30:00,24.9 ,71.4 
2004/9/3,4:45:00,24.8 ,71.3 
2004/9/3,5:00:00,24.8 ,71.2 
2004/9/3,5:15:00,24.8 ,71.1 
2004/9/3,5:30:00,24.8 ,71.2 
2004/9/3,5:45:00,24.8 ,71.3 
2004/9/3,6:00:00,24.8 ,71.3 
2004/9/3,6:15:00,24.9 ,71.2 
2004/9/3,6:30:00,24.9 ,70.9 
2004/9/3,6:45:00,25.1 ,70.5 
2004/9/3,7:00:00,25.2 ,70.1 
2004/9/3,7:15:00,25.4 ,69.7 
2004/9/3,7:30:00,25.6 ,69.4 
2004/9/3,7:45:00,25.8 ,69.6 
2004/9/3,8:00:00,25.8 ,70.3 
2004/9/3,8:15:00,25.6 ,71.1 
2004/9/3,8:30:00,25.8 ,68.8 
2004/9/3,8:45:00,26.2 ,66.4 
2004/9/3,9:00:00,26.1 ,68.0 
2004/9/3,9:15:00,26.4 ,67.1 
2004/9/3,9:30:00,26.6 ,66.5 
2004/9/3,9:45:00,27.0 ,65.0 
2004/9/3,10:00:00,26.9 ,65.4 
2004/9/3,10:15:00,26.6 ,61.1 
2004/9/3,10:30:00,26.5 ,58.8 
2004/9/3,10:45:00,26.9 ,59.4 
2004/9/3,11:00:00,27.1 ,58.3 
2004/9/3,11:15:00,27.3 ,56.6 
2004/9/3,11:30:00,27.2 ,55.5 
2004/9/3,11:45:00,27.3 ,54.9 
2004/9/3,12:00:00,27.3 ,54.4 
2004/9/3,12:15:00,27.4 ,53.4 
2004/9/3,12:30:00,27.4 ,51.4 
2004/9/3,12:45:00,27.4 ,53.0 
2004/9/3,13:00:00,27.5 ,51.3 
2004/9/3,13:15:00,27.6 ,52.0 
2004/9/3,13:30:00,27.5 ,51.4 
2004/9/3,13:45:00,27.7 ,53.8 
2004/9/3,14:00:00,27.6 ,55.2 
2004/9/3,14:15:00,27.7 ,57.0 
2004/9/3,14:30:00,27.6 ,58.0 
2004/9/3,14:45:00,27.6 ,58.0 
2004/9/3,15:00:00,27.6 ,56.0 
2004/9/3,15:15:00,27.4 ,55.9 
2004/9/3,15:30:00,27.3 ,55.0 
2004/9/3,15:45:00,27.1 ,56.6 
2004/9/3,16:00:00,27.1 ,56.4 
2004/9/3,16:15:00,26.9 ,56.3 
2004/9/3,16:30:00,26.8 ,58.1 
2004/9/3,16:45:00,26.6 ,60.5 
2004/9/3,17:00:00,26.4 ,61.9 
2004/9/3,17:15:00,26.3 ,62.3 
2004/9/3,17:30:00,26.1 ,62.6 
2004/9/3,17:45:00,25.8 ,65.0 
2004/9/3,18:00:00,25.7 ,64.4 
2004/9/3,18:15:00,25.5 ,67.0 
2004/9/3,18:30:00,24.9 ,70.0 
2004/9/3,18:45:00,24.7 ,70.1 
2004/9/3,19:00:00,24.9 ,71.4 
2004/9/3,19:15:00,24.9 ,72.0 
2004/9/3,19:30:00,24.8 ,71.9 
2004/9/3,19:45:00,24.8 ,72.9 
2004/9/3,20:00:00,25.0 ,71.1 
2004/9/3,20:15:00,25.0 ,70.4 
2004/9/3,20:30:00,24.9 ,69.8 
2004/9/3,20:45:00,24.8 ,71.3 
2004/9/3,21:00:00,24.6 ,72.1 
2004/9/3,21:15:00,24.6 ,71.6 
2004/9/3,21:30:00,24.4 ,72.6 
2004/9/3,21:45:00,24.5 ,74.0 
2004/9/3,22:00:00,24.3 ,74.3 
2004/9/3,22:15:00,24.3 ,73.3 
2004/9/3,22:30:00,24.0 ,75.0 
2004/9/3,22:45:00,24.7 ,72.5 
2004/9/3,23:00:00,24.6 ,73.2 
2004/9/3,23:15:00,24.7 ,72.8 
2004/9/3,23:30:00,24.9 ,72.3 
2004/9/3,23:45:00,25.1 ,71.5 
2004/9/4,0:00:00,25.3 ,70.7 
2004/9/4,0:15:00,25.3 ,70.4 
2004/9/4,0:30:00,25.3 ,70.0 
2004/9/4,0:45:00,25.3 ,70.0 
2004/9/4,1:00:00,25.4 ,70.1 
2004/9/4,1:15:00,25.4 ,69.8 
2004/9/4,1:30:00,25.4 ,70.2 
2004/9/4,1:45:00,25.4 ,69.9 
2004/9/4,2:00:00,25.4 ,70.6 
2004/9/4,2:15:00,25.4 ,70.8 
2004/9/4,2:30:00,25.4 ,70.7 
2004/9/4,2:45:00,25.4 ,70.7 
2004/9/4,3:00:00,25.4 ,70.5 
2004/9/4,3:15:00,25.4 ,70.3 
2004/9/4,3:30:00,25.4 ,70.1 
2004/9/4,3:45:00,25.3 ,70.0 
2004/9/4,4:00:00,25.3 ,69.9 
2004/9/4,4:15:00,25.3 ,69.9 
2004/9/4,4:30:00,25.3 ,69.9 
2004/9/4,4:45:00,25.3 ,70.0 
2004/9/4,5:00:00,25.2 ,70.0 
2004/9/4,5:15:00,25.2 ,70.0 
2004/9/4,5:30:00,25.2 ,69.9 
2004/9/4,5:45:00,25.2 ,69.8 
2004/9/4,6:00:00,25.2 ,69.7 
2004/9/4,6:15:00,25.3 ,69.6 
2004/9/4,6:30:00,25.3 ,69.7 
2004/9/4,6:45:00,25.3 ,69.6 
2004/9/4,7:00:00,25.3 ,69.5 
2004/9/4,7:15:00,25.3 ,69.5 
2004/9/4,7:30:00,25.3 ,69.4 
2004/9/4,7:45:00,25.4 ,69.5 
2004/9/4,8:00:00,25.4 ,69.5 
2004/9/4,8:15:00,25.6 ,69.1 
2004/9/4,8:30:00,25.8 ,69.0 
2004/9/4,8:45:00,26.1 ,67.8 
2004/9/4,9:00:00,26.1 ,67.6 
2004/9/4,9:15:00,26.2 ,68.6 
2004/9/4,9:30:00,25.9 ,68.9 
2004/9/4,9:45:00,25.7 ,69.8 
2004/9/4,10:00:00,25.5 ,71.1 
2004/9/4,10:15:00,25.7 ,72.6 
2004/9/4,10:30:00,26.1 ,68.2 
2004/9/4,10:45:00,26.2 ,68.7 
2004/9/4,11:00:00,26.7 ,66.1 
2004/9/4,11:15:00,26.9 ,67.0 
2004/9/4,11:30:00,27.0 ,67.4 
2004/9/4,11:45:00,27.1 ,67.3 
2004/9/4,12:00:00,27.1 ,67.6 
2004/9/4,12:15:00,27.2 ,67.2 
2004/9/4,12:30:00,27.1 ,67.7 
2004/9/4,12:45:00,27.1 ,68.3 
2004/9/4,13:00:00,27.1 ,68.9 
2004/9/4,13:15:00,27.0 ,69.8 
2004/9/4,13:30:00,27.0 ,70.4 
2004/9/4,13:45:00,27.0 ,70.4 
2004/9/4,14:00:00,26.9 ,70.1 
2004/9/4,14:15:00,26.9 ,69.9 
2004/9/4,14:30:00,26.9 ,71.1 
2004/9/4,14:45:00,26.8 ,69.9 
2004/9/4,15:00:00,26.7 ,72.8 
2004/9/4,15:15:00,26.7 ,73.0 
2004/9/4,15:30:00,26.7 ,73.3 
2004/9/4,15:45:00,26.7 ,73.8 
2004/9/4,16:00:00,26.6 ,75.2 
2004/9/4,16:15:00,26.6 ,75.5 
2004/9/4,16:30:00,26.6 ,74.2 
2004/9/4,16:45:00,26.6 ,73.8 
2004/9/4,17:00:00,26.5 ,74.3 
2004/9/4,17:15:00,26.4 ,74.4 
2004/9/4,17:30:00,26.3 ,74.6 
2004/9/4,17:45:00,26.2 ,74.5 
2004/9/4,18:00:00,26.2 ,73.9 
2004/9/4,18:15:00,26.1 ,73.4 
2004/9/4,18:30:00,26.0 ,72.1 
2004/9/4,18:45:00,26.0 ,71.5 
2004/9/4,19:00:00,26.0 ,71.0 
2004/9/4,19:15:00,25.9 ,71.0 
2004/9/4,19:30:00,25.9 ,70.6 
2004/9/4,19:45:00,25.6 ,71.1 
2004/9/4,20:00:00,25.6 ,71.5 
2004/9/4,20:15:00,25.5 ,72.6 
2004/9/4,20:30:00,25.8 ,71.2 
2004/9/4,20:45:00,25.8 ,71.3 
2004/9/4,21:00:00,25.5 ,71.8 
2004/9/4,21:15:00,25.6 ,72.2 
2004/9/4,21:30:00,25.8 ,70.9 
2004/9/4,21:45:00,25.4 ,72.8 
2004/9/4,22:00:00,25.2 ,73.4 
2004/9/4,22:15:00,25.2 ,73.6 
2004/9/4,22:30:00,24.9 ,75.3 
2004/9/4,22:45:00,24.6 ,76.3 
2004/9/4,23:00:00,24.7 ,75.3 
2004/9/4,23:15:00,24.5 ,75.9 
2004/9/4,23:30:00,25.1 ,73.0 
2004/9/4,23:45:00,25.2 ,72.7 
2004/9/5,0:00:00,25.3 ,72.3 
2004/9/5,0:15:00,25.3 ,72.2 
2004/9/5,0:30:00,25.4 ,71.9 
2004/9/5,0:45:00,25.4 ,71.5 
2004/9/5,1:00:00,25.3 ,71.5 
2004/9/5,1:15:00,25.3 ,71.5 
2004/9/5,1:30:00,25.3 ,71.2 
2004/9/5,1:45:00,25.4 ,71.4 
2004/9/5,2:00:00,25.3 ,71.5 
2004/9/5,2:15:00,25.3 ,71.4 
2004/9/5,2:30:00,25.2 ,71.7 
2004/9/5,2:45:00,25.2 ,71.8 
2004/9/5,3:00:00,25.2 ,72.0 
2004/9/5,3:15:00,25.1 ,72.2 
2004/9/5,3:30:00,25.1 ,72.3 
2004/9/5,3:45:00,25.1 ,72.4 
2004/9/5,4:00:00,25.1 ,72.3 
2004/9/5,4:15:00,25.1 ,72.6 
2004/9/5,4:30:00,25.0 ,72.5 
2004/9/5,4:45:00,25.0 ,72.6 
2004/9/5,5:00:00,25.0 ,72.6 
2004/9/5,5:15:00,25.0 ,72.5 
2004/9/5,5:30:00,24.9 ,72.5 
2004/9/5,5:45:00,24.9 ,72.6 
2004/9/5,6:00:00,24.9 ,72.5 
2004/9/5,6:15:00,24.9 ,72.6 
2004/9/5,6:30:00,24.8 ,72.7 
2004/9/5,6:45:00,24.8 ,72.5 
2004/9/5,7:00:00,24.8 ,72.5 
2004/9/5,7:15:00,24.8 ,72.4 
2004/9/5,7:30:00,24.8 ,72.3 
2004/9/5,7:45:00,24.8 ,72.4 
2004/9/5,8:00:00,24.8 ,72.3 
2004/9/5,8:15:00,24.7 ,72.4 
2004/9/5,8:30:00,24.8 ,72.2 
2004/9/5,8:45:00,24.8 ,72.2 
2004/9/5,9:00:00,24.4 ,73.7 
2004/9/5,9:15:00,24.3 ,73.8 
2004/9/5,9:30:00,24.9 ,71.4 
2004/9/5,9:45:00,25.0 ,71.2 
2004/9/5,10:00:00,25.0 ,71.9 
2004/9/5,10:15:00,24.9 ,72.3 
2004/9/5,10:30:00,24.7 ,73.8 
2004/9/5,10:45:00,24.8 ,74.0 
2004/9/5,11:00:00,24.8 ,75.0 
2004/9/5,11:15:00,24.6 ,78.3 
2004/9/5,11:30:00,24.9 ,76.1 
2004/9/5,11:45:00,25.0 ,75.3 
2004/9/5,12:00:00,24.9 ,76.5 
2004/9/5,12:15:00,24.9 ,77.7 
2004/9/5,12:30:00,24.7 ,78.5 
2004/9/5,12:45:00,24.7 ,79.3 
2004/9/5,13:00:00,24.7 ,79.0 
2004/9/5,13:15:00,24.9 ,78.4 
2004/9/5,13:30:00,24.5 ,80.1 
2004/9/5,13:45:00,24.8 ,78.2 
2004/9/5,14:00:00,24.9 ,78.2 
2004/9/5,14:15:00,24.9 ,79.2 
2004/9/5,14:30:00,24.4 ,80.2 
2004/9/5,14:45:00,24.6 ,79.0 
2004/9/5,15:00:00,24.4 ,80.6 
2004/9/5,15:15:00,24.5 ,80.5 
2004/9/5,15:30:00,24.5 ,82.0 
2004/9/5,15:45:00,24.4 ,80.3 
2004/9/5,16:00:00,24.4 ,80.3 
2004/9/5,16:15:00,24.9 ,78.1 
2004/9/5,16:30:00,24.8 ,79.1 
2004/9/5,16:45:00,24.8 ,79.9 
2004/9/5,17:00:00,24.9 ,79.6 
2004/9/5,17:15:00,24.6 ,81.4 
2004/9/5,17:30:00,25.0 ,79.1 
2004/9/5,17:45:00,25.0 ,78.6 
2004/9/5,18:00:00,25.0 ,78.1 
2004/9/5,18:15:00,25.0 ,77.5 
2004/9/5,18:30:00,25.0 ,77.4 
2004/9/5,18:45:00,25.1 ,77.3 
2004/9/5,19:00:00,25.2 ,77.3 
2004/9/5,19:15:00,25.4 ,77.4 
2004/9/5,19:30:00,25.5 ,76.5 
2004/9/5,19:45:00,25.5 ,76.2 
2004/9/5,20:00:00,25.6 ,75.8 
2004/9/5,20:15:00,25.4 ,76.4 
2004/9/5,20:30:00,25.3 ,76.6 
2004/9/5,20:45:00,25.3 ,76.5 
2004/9/5,21:00:00,25.5 ,76.4 
2004/9/5,21:15:00,25.5 ,76.3 
2004/9/5,21:30:00,25.5 ,76.9 
2004/9/5,21:45:00,25.3 ,77.7 
2004/9/5,22:00:00,25.3 ,77.9 
2004/9/5,22:15:00,25.2 ,78.2 
2004/9/5,22:30:00,25.2 ,77.4 
2004/9/5,22:45:00,25.1 ,77.4 
2004/9/5,23:00:00,25.3 ,77.1 
2004/9/5,23:15:00,25.2 ,77.4 
2004/9/5,23:30:00,25.1 ,77.5 
2004/9/5,23:45:00,25.1 ,77.5 
2004/9/6,0:00:00,25.1 ,76.7 
2004/9/6,0:15:00,25.1 ,76.7 
2004/9/6,0:30:00,25.1 ,77.3 
2004/9/6,0:45:00,25.1 ,76.9 
2004/9/6,1:00:00,25.0 ,77.0 
2004/9/6,1:15:00,25.0 ,76.9 
2004/9/6,1:30:00,25.0 ,76.8 
2004/9/6,1:45:00,25.0 ,76.8 
2004/9/6,2:00:00,24.9 ,76.6 
2004/9/6,2:15:00,24.9 ,76.4 
2004/9/6,2:30:00,24.9 ,76.4 
2004/9/6,2:45:00,24.9 ,76.3 
2004/9/6,3:00:00,24.8 ,76.2 
2004/9/6,3:15:00,24.8 ,76.2 
2004/9/6,3:30:00,24.8 ,76.1 
2004/9/6,3:45:00,24.8 ,76.0 
2004/9/6,4:00:00,24.8 ,76.0 
2004/9/6,4:15:00,24.8 ,75.9 
2004/9/6,4:30:00,24.7 ,75.8 
2004/9/6,4:45:00,24.7 ,75.6 
2004/9/6,5:00:00,24.7 ,75.7 
2004/9/6,5:15:00,24.7 ,75.6 
2004/9/6,5:30:00,24.7 ,75.7 
2004/9/6,5:45:00,24.7 ,75.5 
2004/9/6,6:00:00,24.7 ,75.5 
2004/9/6,6:15:00,24.7 ,75.4 
2004/9/6,6:30:00,24.7 ,75.4 
2004/9/6,6:45:00,24.7 ,75.4 
2004/9/6,7:00:00,24.8 ,75.0 
2004/9/6,7:15:00,24.8 ,74.8 
2004/9/6,7:30:00,24.9 ,74.7 
2004/9/6,7:45:00,25.1 ,74.0 
2004/9/6,8:00:00,25.3 ,75.2 
2004/9/6,8:15:00,25.4 ,75.8 
2004/9/6,8:30:00,25.5 ,76.8 
2004/9/6,8:45:00,25.4 ,77.2 
2004/9/6,9:00:00,25.4 ,76.3 
2004/9/6,9:15:00,25.6 ,76.1 
2004/9/6,9:30:00,25.8 ,75.1 
2004/9/6,9:45:00,26.0 ,74.8 
2004/9/6,10:00:00,26.1 ,75.0 
2004/9/6,10:15:00,26.2 ,74.0 
2004/9/6,10:30:00,26.2 ,72.8 
2004/9/6,10:45:00,26.2 ,72.6 
2004/9/6,11:00:00,26.3 ,71.8 
2004/9/6,11:15:00,26.4 ,72.1 
2004/9/6,11:30:00,26.5 ,72.2 
2004/9/6,11:45:00,26.6 ,72.0 
2004/9/6,12:00:00,26.7 ,71.9 
2004/9/6,12:15:00,26.8 ,71.8 
2004/9/6,12:30:00,26.8 ,71.8 
2004/9/6,12:45:00,26.9 ,71.6 
2004/9/6,13:00:00,27.0 ,71.7 
2004/9/6,13:15:00,27.0 ,71.5 
2004/9/6,13:30:00,27.2 ,71.2 
2004/9/6,13:45:00,27.4 ,70.5 
2004/9/6,14:00:00,27.5 ,70.2 
2004/9/6,14:15:00,27.6 ,70.5 
2004/9/6,14:30:00,27.7 ,69.5 
2004/9/6,14:45:00,27.7 ,70.3 
2004/9/6,15:00:00,27.8 ,70.3 
2004/9/6,15:15:00,27.7 ,71.2 
2004/9/6,15:30:00,27.8 ,71.9 
2004/9/6,15:45:00,27.8 ,73.1 
2004/9/6,16:00:00,27.8 ,74.8 
2004/9/6,16:15:00,27.7 ,74.9 
2004/9/6,16:30:00,27.7 ,79.4 
2004/9/6,16:45:00,27.6 ,79.7 
2004/9/6,17:00:00,27.2 ,75.4 
2004/9/6,17:15:00,26.7 ,78.4 
2004/9/6,17:30:00,26.4 ,79.8 
2004/9/6,17:45:00,25.9 ,78.0 
2004/9/6,18:00:00,25.9 ,76.5 
2004/9/6,18:15:00,25.8 ,75.9 
2004/9/6,18:30:00,25.7 ,77.1 
2004/9/6,18:45:00,25.3 ,79.1 
2004/9/6,19:00:00,24.1 ,84.2 
2004/9/6,19:15:00,24.0 ,82.7 
2004/9/6,19:30:00,24.1 ,82.2 
2004/9/6,19:45:00,24.2 ,82.6 
2004/9/6,20:00:00,24.8 ,80.1 
2004/9/6,20:15:00,24.6 ,82.1 
2004/9/6,20:30:00,24.2 ,84.8 
2004/9/6,20:45:00,24.3 ,81.1 
2004/9/6,21:00:00,23.9 ,81.5 
2004/9/6,21:15:00,23.7 ,82.6 
2004/9/6,21:30:00,23.9 ,81.4 
2004/9/6,21:45:00,24.2 ,80.6 
2004/9/6,22:00:00,24.7 ,78.2 
2004/9/6,22:15:00,24.5 ,79.0 
2004/9/6,22:30:00,24.8 ,77.5 
2004/9/6,22:45:00,25.1 ,76.9 
2004/9/6,23:00:00,25.3 ,76.4 
2004/9/6,23:15:00,25.3 ,76.5 
2004/9/6,23:30:00,25.3 ,76.5 
2004/9/6,23:45:00,25.5 ,76.1 ,,,
2004/9/7,0:00:00,25.4 ,76.4 ,,,
2004/9/7,0:15:00,25.4 ,76.4 ,,,
2004/9/7,0:30:00,25.5 ,76.3 ,26.2 ,,27.1 
2004/9/7,0:45:00,25.4 ,76.4 ,25.3 ,,26.6 
2004/9/7,1:00:00,25.4 ,76.5 ,24.9 ,,26.4 
2004/9/7,1:15:00,25.6 ,76.6 ,24.8 ,,26.4 
2004/9/7,1:30:00,25.5 ,77.0 ,24.7 ,,26.3 
2004/9/7,1:45:00,25.5 ,76.6 ,24.7 ,,26.2 
2004/9/7,2:00:00,25.5 ,76.3 ,24.7 ,,26.1 
2004/9/7,2:15:00,25.5 ,76.1 ,24.7 ,,26.1 
2004/9/7,2:30:00,25.5 ,76.0 ,24.7 ,,26.0 
2004/9/7,2:45:00,25.5 ,75.9 ,24.7 ,,26.0 
2004/9/7,3:00:00,25.5 ,75.8 ,24.6 ,,26.0 
2004/9/7,3:15:00,25.4 ,75.8 ,24.6 ,,26.0 
2004/9/7,3:30:00,25.4 ,75.7 ,24.6 ,,25.9 
2004/9/7,3:45:00,25.4 ,75.6 ,24.6 ,,25.9 
2004/9/7,4:00:00,25.4 ,75.6 ,24.6 ,,25.8 
2004/9/7,4:15:00,25.4 ,75.6 ,24.6 ,,25.8 
2004/9/7,4:30:00,25.3 ,75.6 ,24.6 ,,25.8 
2004/9/7,4:45:00,25.3 ,75.6 ,24.6 ,,25.8 
2004/9/7,5:00:00,25.3 ,75.7 ,24.6 ,,25.8 
2004/9/7,5:15:00,25.3 ,75.6 ,24.6 ,,25.8 
2004/9/7,5:30:00,25.3 ,75.6 ,24.6 ,,25.8 
2004/9/7,5:45:00,25.3 ,75.6 ,24.6 ,,25.8 
2004/9/7,6:00:00,25.3 ,75.5 ,24.6 ,,25.8 
2004/9/7,6:15:00,25.3 ,75.6 ,24.6 ,,25.8 
2004/9/7,6:30:00,25.3 ,75.5 ,24.6 ,,25.8 
2004/9/7,6:45:00,25.3 ,75.5 ,24.6 ,,25.8 
2004/9/7,7:00:00,25.4 ,75.4 ,24.6 ,,25.8 
2004/9/7,7:15:00,25.5 ,75.2 ,24.6 ,22.6 ,25.8 
2004/9/7,7:30:00,25.7 ,75.4 ,24.6 ,18.5 ,26.1 
2004/9/7,7:45:00,25.7 ,75.2 ,24.6 ,7.6 ,26.1 
2004/9/7,8:00:00,25.8 ,76.6 ,24.6 ,23.3 ,26.1 
2004/9/7,8:15:00,25.3 ,80.6 ,24.6 ,23.4 ,26.0 
2004/9/7,8:30:00,25.3 ,82.4 ,24.7 ,23.4 ,26.1 
2004/9/7,8:45:00,26.1 ,79.0 ,24.7 ,23.5 ,26.3 
2004/9/7,9:00:00,26.2 ,79.0 ,24.7 ,23.5 ,26.4 
2004/9/7,9:15:00,26.6 ,77.3 ,24.8 ,23.5 ,26.6 
2004/9/7,9:30:00,26.8 ,76.9 ,24.8 ,23.5 ,26.7 
2004/9/7,9:45:00,26.9 ,76.0 ,24.9 ,23.6 ,26.9 
2004/9/7,10:00:00,27.0 ,75.6 ,25.0 ,23.6 ,27.0 
2004/9/7,10:15:00,27.3 ,75.4 ,25.0 ,23.6 ,27.2 
2004/9/7,10:30:00,27.5 ,75.4 ,25.1 ,23.7 ,27.4 
2004/9/7,10:45:00,27.5 ,75.2 ,25.2 ,23.7 ,27.5 
2004/9/7,11:00:00,27.4 ,74.7 ,25.3 ,23.7 ,27.5 
2004/9/7,11:15:00,27.5 ,74.5 ,25.3 ,23.8 ,27.5 
2004/9/7,11:30:00,27.7 ,74.0 ,25.4 ,23.8 ,27.6 
2004/9/7,11:45:00,27.8 ,73.7 ,25.5 ,23.8 ,27.8 
2004/9/7,12:00:00,27.9 ,73.4 ,25.6 ,23.8 ,27.9 
2004/9/7,12:15:00,28.1 ,71.9 ,25.6 ,23.9 ,28.0 
2004/9/7,12:30:00,28.2 ,71.4 ,25.7 ,23.9 ,28.1 
2004/9/7,12:45:00,28.2 ,71.0 ,25.8 ,24.0 ,28.2 
2004/9/7,13:00:00,28.2 ,70.4 ,25.8 ,24.0 ,28.2 
2004/9/7,13:15:00,28.2 ,70.3 ,25.9 ,24.0 ,28.3 
2004/9/7,13:30:00,28.2 ,70.3 ,25.9 ,24.1 ,28.3 
2004/9/7,13:45:00,28.2 ,70.3 ,26.0 ,24.1 ,28.3 
2004/9/7,14:00:00,28.2 ,70.0 ,26.1 ,24.1 ,28.3 
2004/9/7,14:15:00,28.3 ,69.8 ,26.1 ,24.2 ,28.3 
2004/9/7,14:30:00,28.3 ,70.1 ,26.2 ,24.2 ,28.4 
2004/9/7,14:45:00,28.4 ,69.7 ,26.2 ,24.2 ,28.4 
2004/9/7,15:00:00,28.4 ,69.7 ,26.3 ,24.2 ,28.5 
2004/9/7,15:15:00,28.8 ,66.8 ,26.3 ,24.3 ,28.6 
2004/9/7,15:30:00,28.5 ,68.3 ,26.4 ,23.4 ,28.6 
2004/9/7,15:45:00,28.5 ,69.2 ,26.4 ,23.7 ,28.6 
2004/9/7,16:00:00,28.4 ,69.0 ,26.4 ,23.7 ,28.6 
2004/9/7,16:15:00,28.4 ,69.0 ,26.5 ,23.8 ,28.6 
2004/9/7,16:30:00,28.4 ,68.9 ,26.5 ,23.8 ,28.6 
2004/9/7,16:45:00,28.3 ,68.8 ,26.5 ,23.8 ,28.6 
2004/9/7,17:00:00,28.4 ,67.5 ,26.6 ,23.8 ,28.6 
2004/9/7,17:15:00,28.3 ,67.9 ,26.6 ,23.9 ,28.7 
2004/9/7,17:30:00,28.3 ,68.2 ,26.6 ,23.9 ,28.7 
2004/9/7,17:45:00,28.3 ,66.7 ,26.6 ,23.9 ,28.7 
2004/9/7,18:00:00,28.2 ,67.0 ,26.6 ,24.0 ,28.7 
2004/9/7,18:15:00,28.2 ,66.4 ,26.6 ,24.0 ,28.7 
2004/9/7,18:30:00,28.3 ,64.7 ,26.6 ,23.2 ,28.6 
2004/9/7,18:45:00,28.3 ,64.6 ,26.6 ,23.3 ,28.6 
2004/9/7,19:00:00,28.4 ,63.9 ,26.6 ,23.2 ,28.8 
2004/9/7,19:15:00,28.5 ,61.7 ,26.6 ,23.3 ,29.2 
2004/9/7,19:30:00,28.5 ,62.8 ,26.6 ,23.3 ,30.2 
2004/9/7,19:45:00,28.5 ,63.9 ,26.6 ,23.3 ,30.0 
2004/9/7,20:00:00,28.9 ,60.4 ,26.7 ,23.4 ,29.8 
2004/9/7,20:15:00,28.9 ,59.9 ,26.7 ,23.4 ,29.7 
2004/9/7,20:30:00,28.9 ,59.2 ,26.7 ,23.4 ,29.6 
2004/9/7,20:45:00,28.9 ,59.8 ,26.7 ,23.4 ,29.5 
2004/9/7,21:00:00,29.0 ,58.3 ,26.8 ,23.4 ,29.3 
2004/9/7,21:15:00,29.0 ,58.8 ,26.8 ,23.4 ,29.2 
2004/9/7,21:30:00,28.8 ,60.4 ,26.8 ,23.4 ,29.3 
2004/9/7,21:45:00,28.8 ,62.2 ,26.8 ,24.0 ,29.2 
2004/9/7,22:00:00,28.7 ,62.6 ,26.8 ,24.0 ,29.1 
2004/9/7,22:15:00,28.8 ,63.3 ,26.8 ,24.0 ,29.1 
2004/9/7,22:30:00,28.8 ,64.1 ,26.9 ,23.6 ,29.1 
2004/9/7,22:45:00,28.9 ,64.2 ,26.9 ,23.6 ,29.1 
2004/9/7,23:00:00,28.9 ,64.0 ,26.9 ,23.6 ,29.1 
2004/9/7,23:15:00,28.8 ,65.2 ,27.0 ,23.7 ,29.1 
2004/9/7,23:30:00,29.0 ,65.2 ,27.0 ,23.7 ,29.1 
2004/9/7,23:45:00,29.1 ,64.7 ,27.0 ,23.7 ,29.2 
2004/9/8,0:00:00,29.1 ,65.4 ,27.1 ,23.8 ,29.3 
2004/9/8,0:15:00,29.0 ,65.2 ,27.1 ,23.8 ,29.4 
2004/9/8,0:30:00,28.9 ,65.6 ,27.1 ,23.9 ,29.4 
2004/9/8,0:45:00,28.8 ,65.7 ,27.2 ,23.9 ,29.5 
2004/9/8,1:00:00,28.8 ,65.8 ,27.2 ,23.9 ,29.4 
2004/9/8,1:15:00,28.7 ,66.0 ,27.2 ,24.0 ,29.3 
2004/9/8,1:30:00,28.7 ,66.2 ,27.2 ,24.1 ,29.2 
2004/9/8,1:45:00,28.7 ,66.3 ,27.2 ,24.1 ,29.2 
2004/9/8,2:00:00,28.7 ,66.2 ,27.2 ,24.1 ,29.2 
2004/9/8,2:15:00,28.7 ,66.3 ,27.2 ,24.1 ,29.1 
2004/9/8,2:30:00,28.6 ,66.6 ,27.3 ,24.2 ,29.1 
2004/9/8,2:45:00,28.6 ,66.8 ,27.3 ,24.2 ,29.0 
2004/9/8,3:00:00,28.5 ,67.2 ,27.3 ,24.2 ,28.9 
2004/9/8,3:15:00,28.5 ,67.1 ,27.3 ,24.3 ,28.9 
2004/9/8,3:30:00,28.5 ,67.0 ,27.3 ,24.4 ,28.7 
2004/9/8,3:45:00,28.4 ,67.2 ,27.2 ,24.4 ,28.6 
2004/9/8,4:00:00,28.3 ,67.2 ,27.2 ,24.4 ,28.5 
2004/9/8,4:15:00,28.3 ,67.5 ,27.2 ,24.4 ,28.5 
2004/9/8,4:30:00,28.3 ,67.7 ,27.2 ,24.5 ,28.5 
2004/9/8,4:45:00,28.3 ,67.6 ,27.2 ,23.8 ,28.5 
2004/9/8,5:00:00,28.2 ,67.6 ,27.2 ,23.8 ,28.7 
2004/9/8,5:15:00,28.3 ,67.6 ,27.2 ,23.8 ,28.8 
2004/9/8,5:30:00,28.3 ,67.5 ,27.1 ,23.8 ,28.8 
2004/9/8,5:45:00,28.3 ,67.3 ,27.1 ,23.8 ,28.7 
2004/9/8,6:00:00,28.3 ,67.2 ,27.1 ,23.8 ,28.7 
2004/9/8,6:15:00,28.3 ,67.2 ,27.1 ,23.9 ,28.6 
2004/9/8,6:30:00,28.3 ,67.0 ,27.1 ,23.9 ,28.6 
2004/9/8,6:45:00,28.3 ,66.8 ,27.1 ,23.9 ,28.6 
2004/9/8,7:00:00,28.3 ,66.7 ,27.1 ,23.2 ,28.5 
2004/9/8,7:15:00,28.4 ,66.5 ,27.1 ,23.3 ,28.5 
2004/9/8,7:30:00,28.4 ,66.7 ,27.1 ,23.4 ,28.5 
2004/9/8,7:45:00,28.6 ,66.0 ,27.1 ,23.3 ,28.5 
2004/9/8,8:00:00,28.6 ,65.4 ,27.1 ,23.8 ,28.6 
2004/9/8,8:15:00,28.4 ,66.0 ,27.1 ,23.8 ,28.6 
2004/9/8,8:30:00,28.6 ,64.9 ,27.1 ,23.9 ,28.6 
2004/9/8,8:45:00,28.6 ,63.3 ,27.1 ,23.9 ,28.7 
2004/9/8,9:00:00,28.6 ,63.2 ,27.1 ,24.0 ,28.6 